NOAA 16 DEB, 42348

Orbit data source: Space-Track

NOAA 16 DEB, 42348 is space debris in SSO originally from a launch on Thu, 21 Sep 2000 UTC launched from the Air Force Western Test Range (AFWTR). Debris objects in space refer to the collection of defunct objects orbiting the Earth. Examples of debris include non-operational satellites, rocket bodies, and fragments generated from explosions, collisions, or faulty payload assembly.

Loading next visibility...
Identifier
42348, 2000-055QQ
Orbit
SSO
Country
Flag of USUS
Related business
Manufacturer
Unknown
Mission
Spacecraft
Bus & Motor
Unknown
Mass
Unknown
Launch date (UTC)
2000-09-21 (25 years ago)
Launch vehicle
Unknown
Launch site
Air Force Western Test Range (AFWTR)
Object type
Payload
Rocket body
Debris
Shape & HBR
Unknown shape, 0.1 m
Radar Cross Section
Small (<0.1 m²)

Expand to show TLE details & history
Last TLE update: 2 days ago

TLE from 2 days ago
0 NOAA 16 DEB
1 42348U 00055QQ  25286.22336284  .00005524  00000-0  28680-2 0  9996
2 42348  98.7981 276.5922 0056035 268.1269  91.3486 14.14322420494349
Epoch: 2025-10-13T05:21Z
TLE epoch observation values (Epoch: 2025-10-13T05:21:38.549Z)
Latitude
Longitude
174.15235°
Altitude
848.701 km
Speed
7.428 km/s
True Right ascension
18h 26m 22s
True Declination
0° 00' 00"
Sunlit
Object was in daylight at epoch
Visualization orbit readout
Latitude
Unknown
Longitude
Unknown
Altitude
Unknown
Speed
Unknown
Apparent Right ascension
Unknown
Apparent Declination
Unknown
Sunlit
N/A
Visualization observer readout
Local Sidereal Time
11:38:12
Azimuth
Unknown
Elevation
Unknown
Doppler factor
Unknown
Orbital elements
Apogee altitude
882.245 km
Perigee altitude
801.332 km
Semi-major axis
7,219.925 km
Eccentricity
0.0056
Inclination
98.7981°
RAAN
276.5922°
Arg. of periapsis
268.1269°
True anomaly
91.99042°
Mean anomaly
91.3486°
Eccentric anomaly
91.66952°
Mean motion
3.53789 °/min
Orbital period
101.76 mins
BSTAR
0.002868
Loading maneuver chart data...
Computing Atmospheric mass density...
Loading historical data...
Loading historical data...
Loading historical data...
Loading historical data...
Loading historical data...
Loading historical data...
Loading historical data...

Documentation

Showing up to 5 results
|